#timestamp,LO_Frequency,Hit,StdDev 
1569312015.6,286047004.2,N
1569312035.4,286047003.4,N
1569312055.3,286047005.8,Y
1569312075.1,286047003.5,P
1569312095.9,286047003.1,N
1569312115.7,286047006.0,P
1569312135.5,286047005.5,Y
1569312155.4,286046996.5,P
1569312175.2,286046999.6,N
1569312195.1,286046996.6,N
1569312196.0,286046996.6,N
1569312215.8,286046997.2,N
1569312235.6,286046997.6,N
1569312255.5,286046996.6,N
1569312275.3,286046997.4,N
1569312295.2,286046995.4,N
1569312315.9,286046995.7,N
1569312335.7,286046995.2,N
1569312355.6,286046997.3,N
1569312375.4,286046995.6,N
1569312395.3,286046995.2,N
1569312415.1,286046995.2,N
1569312435.8,286046995.0,N
1569312455.7,286046995.2,N
1569312475.5,286046993.3,Y
1569312495.4,286046999.0,P
1569312515.2,286047000.8,N
1569312535.0,286046998.8,N
1569312535.9,286046998.8,N
1569312555.8,286047000.5,N
1569312575.6,286047000.5,N
1569312595.5,286047001.1,N
1569312615.3,286046998.8,N
1569312635.1,286047000.9,N
1569312655.9,286046998.1,N
1569312675.8,286046999.8,N
1569312695.6,286046998.2,N
1569312715.4,286047000.7,N
1569312735.3,286047001.2,N
1569312755.1,286047000.8,N
1569312775.9,286047002.3,N
1569312795.7,286047002.7,N
1569312815.5,286046999.9,N
1569312835.4,286046998.2,N
1569312855.2,286047000.6,N
1569312875.0,286047000.8,N
1569312876.0,286047011.9,Y
1569312895.8,286047002.6,P
1569312915.6,286047002.7,N
1569312935.5,286047000.0,N
1569312955.3,286047000.8,N
1569312975.1,286046998.7,N
1569312995.9,286047000.5,N
1569313015.7,286047002.6,N
1569313035.6,286046999.8,N
1569313055.4,286047001.7,N
1569313075.2,286047003.2,N
1569313095.1,286047003.6,N
1569313096.0,286047003.6,N
1569313115.8,286047004.5,N
1569313135.7,286047007.0,Y
1569313155.5,286047005.9,P
1569313175.3,286047005.6,N
1569313195.2,286047003.6,N
1569313215.0,286047005.8,Y
1569313215.9,286047005.8,P
1569313235.7,286047001.0,N
1569313255.6,286047000.4,N
1569313275.4,286047000.7,N
1569313295.3,286046999.9,N
1569313315.1,286047002.8,N
1569313316.0,286047002.8,N
1569313335.8,286047000.5,N
1569313355.7,286046998.5,N
1569313375.5,286046999.4,N
1569313395.4,286046996.6,N
1569313445.2,286046999.0,E
1569313455.1,286046998.4,N
1569313475.9,286046998.1,P
1569313495.7,286046998.2,P
1569313515.6,286047000.7,Y
1569313535.4,286047002.7,P
1569313555.2,286047002.8,N
1569313575.1,286047002.7,N
1569313576.0,286047002.7,N
1569313595.8,286046999.7,N
1569313615.6,286047000.9,N
1569313635.5,286047000.9,N
1569313655.3,286047001.1,N
1569313675.2,286046998.2,N
1569313695.9,286047001.1,N
1569313715.7,286047000.6,N
1569313735.6,286047001.1,N
1569313755.4,286046999.0,N
1569313775.3,286046998.8,N
1569313795.1,286046998.1,N
1569313796.0,286046998.1,N
1569313815.8,286046998.4,N
1569313835.7,286046999.0,N
1569313855.5,286046998.3,N
1569313875.3,286047001.0,N
1569313895.2,286047001.2,N
1569313915.0,286046998.6,N
1569313915.9,286046998.6,N
1569313935.8,286046996.5,N
1569313955.6,286046997.2,N
1569313975.4,286046996.6,N
1569313995.3,286046998.0,N
1569314015.1,286046995.6,N
1569314035.8,286046995.8,N
1569314055.7,286046995.5,N
1569314075.5,286046995.1,N
1569314095.4,286046997.6,N
1569314115.2,286046997.1,N
1569314135.0,286046997.7,N
1569314135.9,286046997.7,N
1569314155.8,286046997.7,N
1569314175.6,286046997.7,N
1569314195.5,286046997.9,N
1569314215.3,286046995.0,Y
1569314235.1,286046999.4,P
1569314255.9,286046999.1,N
1569314275.7,286046998.8,N
1569314295.6,286046998.6,Y
1569314315.4,286046998.6,P
1569314335.2,286046998.8,P
1569314355.1,286046998.2,P
1569314356.0,286046998.2,Y
1569314375.8,286046999.8,P
1569314395.6,286047002.5,P
1569314415.5,286047002.1,N
1569314435.3,286047002.4,N
1569314455.2,286047000.8,N
1569314475.9,286046996.9,N
1569314495.7,286046996.9,N
1569314515.6,286046998.9,N
1569314535.4,286047001.1,N
1569314555.3,286047001.2,N
1569314575.1,286046998.9,N
1569314576.0,286046998.9,N
1569314595.8,286046999.4,N
1569314615.7,286046996.9,N
1569314635.5,286046996.5,N
1569314655.3,286046996.9,N
1569314675.2,286046999.4,N
1569314695.0,286046998.2,N
1569314695.9,286046998.2,N
1569314715.8,286047002.6,N
1569314735.6,286047002.6,N
1569314755.4,286047002.5,N
1569314775.3,286047002.2,N
1569314795.1,286047001.6,N
1569314815.9,286047000.1,N
1569314835.7,286046998.4,N
1569314855.5,286046998.7,N
1569314875.4,286046998.5,N
1569314895.2,286046996.6,N
1569314915.0,286046994.9,N
1569314916.0,286046994.9,N
1569314935.8,286046997.1,N
1569314955.6,286046997.8,N
1569314975.5,286046997.6,N
1569314995.3,286046997.7,N
1569315015.1,286046995.1,N
1569315035.9,286046995.4,N
1569315055.7,286046995.0,N
1569315075.6,286046997.4,N
1569315095.4,286046996.7,N
1569315115.2,286046998.9,N
1569315135.1,286046996.8,N
1569315136.0,286046996.8,N
1569315155.8,286046999.1,N
1569315175.6,286046998.8,N
1569315195.5,286046998.7,N
1569315215.3,286046999.0,N
1569315235.2,286046998.2,N
1569315255.9,286046998.9,N
1569315275.7,286046999.2,N
1569315295.6,286046999.4,N
1569315315.4,286046998.9,N
1569315335.3,286046996.6,N
1569315355.1,286046998.6,N
1569315356.0,286046998.6,N
1569315375.8,286046999.0,N
1569315395.7,286046998.8,N
1569315415.5,286046999.3,N
1569315435.3,286046996.5,N
1569315455.2,286046997.1,N
1569315475.0,286046996.9,N
1569315475.9,286046996.9,N
1569315495.8,286046996.5,N
1569315515.6,286046996.6,N
1569315535.4,286046997.7,N
1569315555.3,286046999.1,N
1569315575.1,286046999.5,N
1569315595.9,286046997.7,N
